Time,TemperatureF,DewpointF,PressureIn,WindDirection,WindDirectionDegrees,WindSpeedMPH,WindSpeedGustMPH,Humidity,HourlyPrecipIn,Conditions,Clouds,dailyrainin,SoftwareType,DateUTC
2013-04-04 00:00:00,40.8,32.1,30.03,South,178,5.0,19.0,71,0.00,,---,0.00,VWS V13.01,2013-04-04 05:00:00,
2013-04-04 00:05:00,40.9,32.2,30.03,SW,216,17.0,17.0,71,0.00,,---,0.00,VWS V13.01,2013-04-04 05:05:00,
2013-04-04 00:10:00,41.1,32.4,30.03,SW,226,6.0,19.0,71,0.00,,---,0.00,VWS V13.01,2013-04-04 05:10:00,
2013-04-04 00:15:00,41.1,32.1,30.03,SSW,197,12.0,19.0,70,0.00,,---,0.00,VWS V13.01,2013-04-04 05:15:00,
2013-04-04 00:20:00,41.2,32.2,30.02,SW,214,12.0,15.0,70,0.00,,---,0.00,VWS V13.01,2013-04-04 05:20:00,
2013-04-04 00:25:00,41.2,32.2,30.02,SW,226,10.0,21.0,70,0.00,,---,0.00,VWS V13.01,2013-04-04 05:25:00,
2013-04-04 00:30:00,41.2,32.2,30.01,South,186,10.0,21.0,70,0.00,,---,0.00,VWS V13.01,2013-04-04 05:30:00,
2013-04-04 00:35:00,41.6,32.2,30.01,South,185,12.0,16.0,69,0.00,,---,0.00,VWS V13.01,2013-04-04 05:35:00,
2013-04-04 00:40:00,41.5,32.1,30.02,SSE,164,8.0,16.0,69,0.00,,---,0.00,VWS V13.01,2013-04-04 05:40:00,
2013-04-04 00:45:00,41.9,32.1,30.03,South,169,9.0,18.0,68,0.00,,---,0.00,VWS V13.01,2013-04-04 05:45:00,
2013-04-04 00:50:00,42.1,32.0,30.03,South,188,15.0,15.0,67,0.00,,---,0.00,VWS V13.01,2013-04-04 05:50:00,
2013-04-04 00:55:00,42.6,32.0,30.03,SW,227,5.0,19.0,66,0.00,,---,0.00,VWS V13.01,2013-04-04 05:55:00,
2013-04-04 01:00:00,43.1,32.2,30.02,SSW,196,7.0,19.0,65,0.00,,---,0.00,VWS V13.01,2013-04-04 06:00:00,
2013-04-04 01:05:00,43.2,32.2,30.02,SW,222,4.0,22.0,65,0.00,,---,0.00,VWS V13.01,2013-04-04 06:05:00,
2013-04-04 01:10:00,43.2,32.2,30.02,SSW,211,1.0,22.0,65,0.00,,---,0.00,VWS V13.01,2013-04-04 06:10:00,
2013-04-04 01:15:00,43.0,32.1,30.02,SSW,198,4.0,22.0,65,0.00,,---,0.00,VWS V13.01,2013-04-04 06:15:00,
2013-04-04 01:20:00,42.9,32.3,30.02,SW,223,6.0,18.0,66,0.00,,---,0.00,VWS V13.01,2013-04-04 06:20:00,
2013-04-04 01:25:00,42.7,32.2,30.02,SSW,207,11.0,19.0,66,0.00,,---,0.00,VWS V13.01,2013-04-04 06:25:00,
2013-04-04 01:30:00,42.6,32.0,30.03,SW,226,10.0,19.0,66,0.00,,---,0.00,VWS V13.01,2013-04-04 06:30:00,
2013-04-04 01:35:00,42.3,32.1,30.03,SSW,202,4.0,16.0,67,0.00,,---,0.00,VWS V13.01,2013-04-04 06:35:00,
2013-04-04 01:40:00,42.3,32.1,30.02,South,191,17.0,17.0,67,0.00,,---,0.00,VWS V13.01,2013-04-04 06:40:00,
2013-04-04 01:45:00,42.3,32.5,30.03,SSW,213,5.0,19.0,68,0.00,,---,0.00,VWS V13.01,2013-04-04 06:45:00,
2013-04-04 01:50:00,42.0,32.2,30.02,South,190,3.0,14.0,68,0.00,,---,0.00,VWS V13.01,2013-04-04 06:50:00,
2013-04-04 01:55:00,42.2,32.4,30.02,WSW,249,5.0,23.0,68,0.00,,---,0.00,VWS V13.01,2013-04-04 06:55:00,
2013-04-04 02:00:00,41.9,32.1,30.02,SSW,211,9.0,23.0,68,0.00,,---,0.00,VWS V13.01,2013-04-04 07:00:00,
2013-04-04 02:05:00,41.6,32.2,30.02,SW,222,5.0,12.0,69,0.00,,---,0.00,VWS V13.01,2013-04-04 07:05:00,
2013-04-04 02:10:00,41.5,32.1,30.02,SSW,200,11.0,14.0,69,0.00,,---,0.00,VWS V13.01,2013-04-04 07:10:00,
2013-04-04 02:15:00,41.4,32.4,30.02,SW,214,3.0,14.0,70,0.00,,---,0.00,VWS V13.01,2013-04-04 07:15:00,
2013-04-04 02:20:00,41.2,32.2,30.01,South,169,5.0,13.0,70,0.00,,---,0.00,VWS V13.01,2013-04-04 07:20:00,
2013-04-04 02:26:00,41.1,32.4,30.01,SSW,209,3.0,15.0,71,0.00,,---,0.00,VWS V13.01,2013-04-04 07:26:00,
2013-04-04 02:31:00,41.1,32.4,30.01,SSW,206,3.0,16.0,71,0.00,,---,0.00,VWS V13.01,2013-04-04 07:31:00,
2013-04-04 02:36:00,41.2,32.5,30.00,SSW,206,7.0,13.0,71,0.00,,---,0.00,VWS V13.01,2013-04-04 07:36:00,
2013-04-04 02:41:00,41.3,32.3,30.00,South,182,7.0,17.0,70,0.00,,---,0.00,VWS V13.01,2013-04-04 07:41:00,
2013-04-04 02:46:00,41.3,32.6,29.99,WSW,238,5.0,17.0,71,0.00,,---,0.00,VWS V13.01,2013-04-04 07:46:00,
2013-04-04 02:51:00,41.3,32.6,29.99,South,173,6.0,15.0,71,0.00,,---,0.00,VWS V13.01,2013-04-04 07:51:00,
2013-04-04 02:56:00,41.3,32.6,29.99,SW,221,4.0,15.0,71,0.00,,---,0.00,VWS V13.01,2013-04-04 07:56:00,
2013-04-04 03:00:00,41.4,32.7,30.00,SSW,211,0.0,15.0,71,0.00,,---,0.00,VWS V13.01,2013-04-04 08:00:00,
2013-04-04 03:06:00,41.5,32.5,29.99,WSW,251,5.0,15.0,70,0.00,,---,0.00,VWS V13.01,2013-04-04 08:06:00,
2013-04-04 03:11:00,41.6,32.6,29.99,South,188,3.0,15.0,70,0.00,,---,0.00,VWS V13.01,2013-04-04 08:11:00,
2013-04-04 03:16:00,41.7,32.7,29.99,SSW,203,7.0,15.0,70,0.00,,---,0.00,VWS V13.01,2013-04-04 08:16:00,
2013-04-04 03:21:00,41.6,32.6,29.99,SSW,194,3.0,15.0,70,0.00,,---,0.00,VWS V13.01,2013-04-04 08:21:00,
2013-04-04 03:26:00,41.6,32.9,29.99,South,188,10.0,15.0,71,0.00,,---,0.00,VWS V13.01,2013-04-04 08:26:00,
2013-04-04 03:32:00,41.6,32.6,29.99,SSW,211,4.0,15.0,70,0.00,,---,0.00,VWS V13.01,2013-04-04 08:32:00,
2013-04-04 03:37:00,41.6,32.9,29.98,SW,232,3.0,13.0,71,0.00,,---,0.00,VWS V13.01,2013-04-04 08:37:00,
2013-04-04 03:42:00,41.3,32.6,29.98,SW,217,2.0,13.0,71,0.00,,---,0.00,VWS V13.01,2013-04-04 08:42:00,
2013-04-04 03:47:00,41.1,32.8,29.98,SSW,202,6.0,6.0,72,0.00,,---,0.00,VWS V13.01,2013-04-04 08:47:00,
2013-04-04 03:52:00,41.1,32.8,29.98,SSW,196,4.0,17.0,72,0.00,,---,0.00,VWS V13.01,2013-04-04 08:52:00,
2013-04-04 03:57:00,41.0,34.0,29.98,South,190,10.0,17.0,76,0.00,,---,0.00,VWS V13.01,2013-04-04 08:57:00,
2013-04-04 04:02:00,40.9,32.6,29.98,SW,232,9.0,9.0,72,0.00,,---,0.00,VWS V13.01,2013-04-04 09:02:00,
2013-04-04 04:07:00,40.8,32.8,29.98,SSW,210,2.0,13.0,73,0.00,,---,0.00,VWS V13.01,2013-04-04 09:07:00,
2013-04-04 04:12:00,40.7,32.7,29.98,South,187,9.0,14.0,73,0.00,,---,0.00,VWS V13.01,2013-04-04 09:12:00,
2013-04-04 04:17:00,40.5,32.5,29.98,SW,232,0.0,8.0,73,0.00,,---,0.00,VWS V13.01,2013-04-04 09:17:00,
2013-04-04 04:22:00,40.5,32.5,29.99,SW,236,5.0,11.0,73,0.00,,---,0.00,VWS V13.01,2013-04-04 09:22:00,
2013-04-04 04:27:00,40.6,32.6,29.99,SW,229,4.0,14.0,73,0.00,,---,0.00,VWS V13.01,2013-04-04 09:27:00,
2013-04-04 04:32:00,40.6,33.0,29.99,WSW,247,0.0,4.0,74,0.00,,---,0.00,VWS V13.01,2013-04-04 09:32:00,
2013-04-04 04:37:00,40.7,33.1,29.99,WSW,238,0.0,15.0,74,0.00,,---,0.00,VWS V13.01,2013-04-04 09:37:00,
2013-04-04 04:42:00,40.6,33.0,29.99,WSW,242,5.0,15.0,74,0.00,,---,0.00,VWS V13.01,2013-04-04 09:42:00,
2013-04-04 04:47:00,40.6,33.0,29.98,SW,228,6.0,6.0,74,0.00,,---,0.00,VWS V13.01,2013-04-04 09:47:00,
2013-04-04 04:52:00,40.6,33.0,29.99,SSW,200,6.0,13.0,74,0.00,,---,0.00,VWS V13.01,2013-04-04 09:52:00,
2013-04-04 04:57:00,40.6,33.0,29.99,SW,234,7.0,13.0,74,0.00,,---,0.00,VWS V13.01,2013-04-04 09:57:00,
2013-04-04 05:02:00,40.4,33.1,29.99,SW,234,3.0,7.0,75,0.00,,---,0.00,VWS V13.01,2013-04-04 10:02:00,
2013-04-04 05:07:00,40.1,32.8,29.99,SSW,206,1.0,9.0,75,0.00,,---,0.00,VWS V13.01,2013-04-04 10:07:00,
2013-04-04 05:12:00,39.8,32.9,30.00,WSW,249,2.0,11.0,76,0.00,,---,0.00,VWS V13.01,2013-04-04 10:12:00,
2013-04-04 05:17:00,39.5,32.9,30.00,WSW,240,8.0,9.0,77,0.00,,---,0.00,VWS V13.01,2013-04-04 10:17:00,
2013-04-04 05:22:00,39.3,32.7,30.00,WSW,251,1.0,11.0,77,0.00,,---,0.00,VWS V13.01,2013-04-04 10:22:00,
2013-04-04 05:28:00,39.1,32.8,29.99,WSW,242,0.0,11.0,78,0.00,,---,0.00,VWS V13.01,2013-04-04 10:28:00,
2013-04-04 05:33:00,38.8,32.9,29.99,SW,235,1.0,6.0,79,0.00,,---,0.00,VWS V13.01,2013-04-04 10:33:00,
2013-04-04 05:38:00,38.6,32.7,30.00,SW,236,5.0,7.0,79,0.00,,---,0.00,VWS V13.01,2013-04-04 10:38:00,
2013-04-04 05:43:00,38.4,32.8,30.00,SW,233,1.0,7.0,80,0.00,,---,0.00,VWS V13.01,2013-04-04 10:43:00,
2013-04-04 05:48:00,38.4,32.8,30.00,West,273,3.0,5.0,80,0.00,,---,0.00,VWS V13.01,2013-04-04 10:48:00,
2013-04-04 05:53:00,38.3,33.0,30.00,WSW,248,0.0,7.0,81,0.00,,---,0.00,VWS V13.01,2013-04-04 10:53:00,
2013-04-04 05:58:00,38.2,32.9,30.00,WSW,244,4.0,7.0,81,0.00,,---,0.00,VWS V13.01,2013-04-04 10:58:00,
2013-04-04 06:03:00,38.1,33.1,30.01,SW,222,3.0,3.0,82,0.00,,---,0.00,VWS V13.01,2013-04-04 11:03:00,
2013-04-04 06:08:00,37.9,32.9,30.01,WSW,252,2.0,5.0,82,0.00,,---,0.00,VWS V13.01,2013-04-04 11:08:00,
2013-04-04 06:13:00,37.7,33.0,30.01,WSW,253,5.0,7.0,83,0.00,,---,0.00,VWS V13.01,2013-04-04 11:13:00,
2013-04-04 06:18:00,37.5,33.1,30.01,West,273,1.0,3.0,84,0.00,,---,0.00,VWS V13.01,2013-04-04 11:18:00,
2013-04-04 06:23:00,37.4,33.0,30.01,West,273,2.0,5.0,84,0.00,,---,0.00,VWS V13.01,2013-04-04 11:23:00,
2013-04-04 06:28:00,37.3,33.2,30.02,West,274,2.0,7.0,85,0.00,,---,0.00,VWS V13.01,2013-04-04 11:28:00,
2013-04-04 06:33:00,37.1,33.0,30.02,West,271,3.0,5.0,85,0.00,,---,0.00,VWS V13.01,2013-04-04 11:33:00,
2013-04-04 06:38:00,37.0,33.2,30.02,West,271,3.0,5.0,86,0.00,,---,0.00,VWS V13.01,2013-04-04 11:38:00,
2013-04-04 06:43:00,37.0,33.2,30.02,West,271,3.0,5.0,86,0.00,,---,0.00,VWS V13.01,2013-04-04 11:43:00,
2013-04-04 06:48:00,36.9,33.1,30.03,West,271,3.0,3.0,86,0.00,,---,0.00,VWS V13.01,2013-04-04 11:48:00,
2013-04-04 06:53:00,37.0,33.2,30.03,West,280,5.0,7.0,86,0.00,,---,0.00,VWS V13.01,2013-04-04 11:53:00,
2013-04-04 06:58:00,36.9,33.1,30.03,West,268,3.0,8.0,86,0.00,,---,0.00,VWS V13.01,2013-04-04 11:58:00,
2013-04-04 07:03:00,36.9,33.1,30.03,WNW,284,3.0,4.0,86,0.00,,---,0.00,VWS V13.01,2013-04-04 12:03:00,
2013-04-04 07:08:00,36.7,32.9,30.03,West,269,2.0,5.0,86,0.00,,---,0.00,VWS V13.01,2013-04-04 12:08:00,
2013-04-04 07:13:00,36.6,33.1,30.04,WNW,293,0.0,9.0,87,0.00,,---,0.00,VWS V13.01,2013-04-04 12:13:00,
2013-04-04 07:18:00,36.5,33.0,30.04,West,269,5.0,5.0,87,0.00,,---,0.00,VWS V13.01,2013-04-04 12:18:00,
2013-04-04 07:23:00,36.5,33.0,30.04,WNW,298,6.0,7.0,87,0.00,,---,0.00,VWS V13.01,2013-04-04 12:23:00,
2013-04-04 07:28:00,36.4,32.9,30.04,WNW,300,3.0,7.0,87,0.00,,---,0.00,VWS V13.01,2013-04-04 12:28:00,
2013-04-04 07:33:00,36.3,32.8,30.04,WNW,294,4.0,4.0,87,0.00,,---,0.00,VWS V13.01,2013-04-04 12:33:00,
2013-04-04 07:38:00,36.3,32.8,30.04,WNW,286,3.0,6.0,87,0.00,,---,0.00,VWS V13.01,2013-04-04 12:38:00,
2013-04-04 07:43:00,36.2,32.7,30.05,West,279,5.0,7.0,87,0.00,,---,0.00,VWS V13.01,2013-04-04 12:43:00,
2013-04-04 07:48:00,36.2,32.7,30.05,WNW,298,3.0,6.0,87,0.00,,---,0.00,VWS V13.01,2013-04-04 12:48:00,
2013-04-04 07:53:00,36.2,32.7,30.05,West,276,2.0,7.0,87,0.00,,---,0.00,VWS V13.01,2013-04-04 12:53:00,
2013-04-04 07:58:00,36.2,32.4,30.05,WNW,299,3.0,7.0,86,0.00,,---,0.00,VWS V13.01,2013-04-04 12:58:00,
2013-04-04 08:03:00,36.1,32.3,30.05,WNW,296,4.0,6.0,86,0.00,,---,0.00,VWS V13.01,2013-04-04 13:03:00,
2013-04-04 08:08:00,36.2,32.4,30.05,WNW,299,2.0,6.0,86,0.00,,---,0.00,VWS V13.01,2013-04-04 13:08:00,
2013-04-04 08:13:00,36.6,32.8,30.06,WNW,294,2.0,7.0,86,0.00,,---,0.00,VWS V13.01,2013-04-04 13:13:00,
2013-04-04 08:18:00,37.0,32.9,30.06,WNW,302,6.0,7.0,85,0.00,,---,0.00,VWS V13.01,2013-04-04 13:18:00,
2013-04-04 08:23:00,37.1,32.7,30.06,NW,311,2.0,8.0,84,0.00,,---,0.00,VWS V13.01,2013-04-04 13:23:00,
2013-04-04 08:28:00,36.9,32.5,30.06,NW,311,2.0,8.0,84,0.00,,---,0.00,VWS V13.01,2013-04-04 13:28:00,
2013-04-04 08:33:00,37.0,32.6,30.06,WNW,296,4.0,5.0,84,0.00,,---,0.00,VWS V13.01,2013-04-04 13:33:00,
2013-04-04 08:38:00,37.3,32.9,30.06,NW,304,4.0,6.0,84,0.00,,---,0.00,VWS V13.01,2013-04-04 13:38:00,
2013-04-04 08:43:00,37.7,33.0,30.06,WNW,300,4.0,10.0,83,0.00,,---,0.00,VWS V13.01,2013-04-04 13:43:00,
2013-04-04 08:48:00,38.0,32.7,30.06,West,273,4.0,8.0,81,0.00,,---,0.00,VWS V13.01,2013-04-04 13:48:00,
2013-04-04 08:53:00,38.3,32.7,30.06,NW,318,6.0,8.0,80,0.00,,---,0.00,VWS V13.01,2013-04-04 13:53:00,
2013-04-04 08:58:00,38.7,32.8,30.07,NNW,337,4.0,14.0,79,0.00,,---,0.00,VWS V13.01,2013-04-04 13:58:00,
2013-04-04 09:03:00,39.0,32.7,30.06,NNW,345,3.0,6.0,78,0.00,,---,0.00,VWS V13.01,2013-04-04 14:03:00,
2013-04-04 09:08:00,39.3,32.7,30.06,WNW,303,10.0,11.0,77,0.00,,---,0.00,VWS V13.01,2013-04-04 14:08:00,
2013-04-04 09:13:00,39.5,32.6,30.06,NW,313,0.0,12.0,76,0.00,,---,0.00,VWS V13.01,2013-04-04 14:13:00,
2013-04-04 09:19:00,39.8,32.9,30.06,NW,310,2.0,12.0,76,0.00,,---,0.00,VWS V13.01,2013-04-04 14:19:00,
2013-04-04 09:24:00,40.0,32.7,30.06,WNW,298,6.0,12.0,75,0.00,,---,0.00,VWS V13.01,2013-04-04 14:24:00,
2013-04-04 09:29:00,40.3,33.0,30.07,WNW,303,3.0,12.0,75,0.00,,---,0.00,VWS V13.01,2013-04-04 14:29:00,
2013-04-04 09:34:00,40.9,33.3,30.07,NNW,338,3.0,6.0,74,0.00,,---,0.00,VWS V13.01,2013-04-04 14:34:00,
2013-04-04 09:39:00,41.2,33.2,30.07,NW,306,1.0,9.0,73,0.00,,---,0.00,VWS V13.01,2013-04-04 14:39:00,
2013-04-04 09:44:00,41.4,33.1,30.08,West,271,5.0,9.0,72,0.00,,---,0.00,VWS V13.01,2013-04-04 14:44:00,
2013-04-04 09:49:00,41.3,33.0,30.08,NW,305,0.0,9.0,72,0.00,,---,0.00,VWS V13.01,2013-04-04 14:49:00,
2013-04-04 09:54:00,41.4,32.7,30.08,WNW,298,1.0,10.0,71,0.00,,---,0.00,VWS V13.01,2013-04-04 14:54:00,
2013-04-04 09:59:00,41.7,33.0,30.08,NW,320,6.0,13.0,71,0.00,,---,0.00,VWS V13.01,2013-04-04 14:59:00,
2013-04-04 10:05:00,42.0,32.9,30.08,NW,310,0.0,10.0,70,0.00,,---,0.00,VWS V13.01,2013-04-04 15:05:00,
2013-04-04 10:10:00,41.9,32.5,30.08,WNW,300,6.0,12.0,69,0.00,,---,0.00,VWS V13.01,2013-04-04 15:10:00,
2013-04-04 10:15:00,41.7,32.3,30.08,WNW,292,6.0,12.0,69,0.00,,---,0.00,VWS V13.01,2013-04-04 15:15:00,
2013-04-04 10:20:00,41.7,32.7,30.08,NW,309,6.0,12.0,70,0.00,,---,0.00,VWS V13.01,2013-04-04 15:20:00,
2013-04-04 10:25:00,41.6,32.6,30.08,NW,317,6.0,12.0,70,0.00,,---,0.00,VWS V13.01,2013-04-04 15:25:00,
2013-04-04 10:30:00,41.6,32.2,30.08,WNW,298,4.0,12.0,69,0.00,,---,0.00,VWS V13.01,2013-04-04 15:30:00,
2013-04-04 10:35:00,41.6,32.2,30.08,WNW,282,3.0,11.0,69,0.00,,---,0.00,VWS V13.01,2013-04-04 15:35:00,
2013-04-04 10:40:00,41.8,32.4,30.08,NNW,344,2.0,11.0,69,0.00,,---,0.00,VWS V13.01,2013-04-04 15:40:00,
2013-04-04 10:45:00,42.2,31.7,30.08,North,5,3.0,11.0,66,0.00,,---,0.00,VWS V13.01,2013-04-04 15:45:00,
2013-04-04 10:50:00,42.4,32.6,30.08,NW,309,6.0,11.0,68,0.00,,---,0.00,VWS V13.01,2013-04-04 15:50:00,
2013-04-04 10:55:00,42.7,32.2,30.08,NW,305,1.0,11.0,66,0.00,,---,0.00,VWS V13.01,2013-04-04 15:55:00,
2013-04-04 11:00:00,43.1,32.2,30.08,WNW,296,5.0,11.0,65,0.00,,---,0.00,VWS V13.01,2013-04-04 16:00:00,
2013-04-04 11:05:00,43.2,31.9,30.08,NNW,329,3.0,7.0,64,0.00,,---,0.00,VWS V13.01,2013-04-04 16:05:00,
2013-04-04 11:10:00,43.4,31.7,30.08,WNW,288,2.0,7.0,63,0.00,,---,0.00,VWS V13.01,2013-04-04 16:10:00,
2013-04-04 11:15:00,43.7,31.5,30.09,NNW,329,4.0,7.0,62,0.00,,---,0.00,VWS V13.01,2013-04-04 16:15:00,
2013-04-04 11:20:00,43.9,31.7,30.09,NW,308,0.0,9.0,62,0.00,,---,0.00,VWS V13.01,2013-04-04 16:20:00,
2013-04-04 11:25:00,44.1,31.5,30.09,NNW,336,4.0,9.0,61,0.00,,---,0.00,VWS V13.01,2013-04-04 16:25:00,
2013-04-04 11:30:00,44.5,31.9,30.09,WNW,294,4.0,9.0,61,0.00,,---,0.00,VWS V13.01,2013-04-04 16:30:00,
2013-04-04 11:36:00,44.7,32.1,30.09,NW,312,6.0,9.0,61,0.00,,---,0.00,VWS V13.01,2013-04-04 16:36:00,
2013-04-04 11:41:00,44.9,31.0,30.09,NW,319,5.0,12.0,58,0.00,,---,0.00,VWS V13.01,2013-04-04 16:41:00,
2013-04-04 11:46:00,44.9,30.2,30.09,North,355,6.0,12.0,56,0.00,,---,0.00,VWS V13.01,2013-04-04 16:46:00,
2013-04-04 11:51:00,45.1,31.2,30.09,North,355,3.0,6.0,58,0.00,,---,0.00,VWS V13.01,2013-04-04 16:51:00,
2013-04-04 11:56:00,45.2,31.3,30.09,NNW,340,3.0,10.0,58,0.00,,---,0.00,VWS V13.01,2013-04-04 16:56:00,
2013-04-04 12:01:00,45.5,31.2,30.09,North,360,2.0,10.0,57,0.00,,---,0.00,VWS V13.01,2013-04-04 17:01:00,
2013-04-04 12:06:00,45.8,31.0,30.09,North,5,7.0,10.0,56,0.00,,---,0.00,VWS V13.01,2013-04-04 17:06:00,
2013-04-04 12:11:00,45.9,31.5,30.10,North,355,4.0,10.0,57,0.00,,---,0.00,VWS V13.01,2013-04-04 17:11:00,
2013-04-04 12:16:00,46.0,31.2,30.10,NNW,327,2.0,10.0,56,0.00,,---,0.00,VWS V13.01,2013-04-04 17:16:00,
2013-04-04 12:21:00,46.2,30.9,30.10,NNW,327,4.0,11.0,55,0.00,,---,0.00,VWS V13.01,2013-04-04 17:21:00,
2013-04-04 12:26:00,46.4,30.2,30.10,NNW,342,3.0,12.0,53,0.00,,---,0.00,VWS V13.01,2013-04-04 17:26:00,
2013-04-04 12:31:00,46.4,30.2,30.10,North,5,2.0,12.0,53,0.00,,---,0.00,VWS V13.01,2013-04-04 17:31:00,
2013-04-04 12:36:00,46.4,31.1,30.09,NW,304,4.0,10.0,55,0.00,,---,0.00,VWS V13.01,2013-04-04 17:36:00,
2013-04-04 12:41:00,46.5,30.8,30.09,NW,313,5.0,10.0,54,0.00,,---,0.00,VWS V13.01,2013-04-04 17:41:00,
2013-04-04 12:46:00,46.7,30.5,30.09,NW,306,5.0,12.0,53,0.00,,---,0.00,VWS V13.01,2013-04-04 17:46:00,
2013-04-04 12:51:00,46.9,30.2,30.09,North,360,4.0,11.0,52,0.00,,---,0.00,VWS V13.01,2013-04-04 17:51:00,
2013-04-04 12:56:00,46.8,30.1,30.09,North,360,0.0,11.0,52,0.00,,---,0.00,VWS V13.01,2013-04-04 17:56:00,
2013-04-04 13:02:00,47.1,30.9,30.09,West,265,7.0,11.0,53,0.00,,---,0.00,VWS V13.01,2013-04-04 18:02:00,
2013-04-04 13:07:00,47.0,31.2,30.09,WNW,294,6.0,10.0,54,0.00,,---,0.00,VWS V13.01,2013-04-04 18:07:00,
2013-04-04 13:12:00,46.9,31.6,30.09,WNW,290,3.0,10.0,55,0.00,,---,0.00,VWS V13.01,2013-04-04 18:12:00,
2013-04-04 13:17:00,47.4,32.5,30.09,WSW,258,1.0,10.0,56,0.00,,---,0.00,VWS V13.01,2013-04-04 18:17:00,
2013-04-04 13:22:00,47.8,30.1,30.09,WNW,303,3.0,14.0,50,0.00,,---,0.00,VWS V13.01,2013-04-04 18:22:00,
2013-04-04 13:27:00,47.6,29.9,30.09,WNW,290,7.0,14.0,50,0.00,,---,0.00,VWS V13.01,2013-04-04 18:27:00,
2013-04-04 13:32:00,47.7,30.0,30.09,WNW,292,1.0,2.0,50,0.00,,---,0.00,VWS V13.01,2013-04-04 18:32:00,
2013-04-04 13:37:00,48.1,30.4,30.09,West,276,0.0,9.0,50,0.00,,---,0.00,VWS V13.01,2013-04-04 18:37:00,
2013-04-04 13:42:00,47.9,30.2,30.09,NW,306,5.0,16.0,50,0.00,,---,0.00,VWS V13.01,2013-04-04 18:42:00,
2013-04-04 13:47:00,47.7,29.5,30.09,NW,317,10.0,11.0,49,0.00,,---,0.00,VWS V13.01,2013-04-04 18:47:00,
2013-04-04 19:00:00,41.8,24.5,30.13,NW,315,4.0,14.0,50,0.00,,---,0.00,VWS V13.01,2013-04-05 00:00:00,
2013-04-04 19:11:00,41.8,24.5,30.13,NW,315,4.0,14.0,50,0.00,,---,0.00,VWS V13.01,2013-04-05 00:11:00,
2013-04-04 19:16:00,40.9,24.2,30.13,NW,310,2.0,9.0,51,0.00,,---,0.00,VWS V13.01,2013-04-05 00:16:00,
2013-04-04 19:21:00,40.6,23.9,30.13,NNW,334,0.0,6.0,51,0.00,,---,0.00,VWS V13.01,2013-04-05 00:21:00,
2013-04-04 19:26:00,40.4,24.2,30.14,North,355,7.0,9.0,52,0.00,,---,0.00,VWS V13.01,2013-04-05 00:26:00,
2013-04-04 19:31:00,40.1,23.9,30.14,WNW,302,2.0,9.0,52,0.00,,---,0.00,VWS V13.01,2013-04-05 00:31:00,
2013-04-04 19:36:00,39.8,24.1,30.14,WNW,302,3.0,4.0,53,0.00,,---,0.00,VWS V13.01,2013-04-05 00:36:00,
2013-04-04 19:41:00,39.5,23.8,30.13,WNW,302,1.0,4.0,53,0.00,,---,0.00,VWS V13.01,2013-04-05 00:41:00,
2013-04-04 19:46:00,39.1,23.9,30.14,WNW,302,1.0,6.0,54,0.00,,---,0.00,VWS V13.01,2013-04-05 00:46:00,
2013-04-04 19:51:00,38.9,25.0,30.14,NW,314,4.0,9.0,57,0.00,,---,0.00,VWS V13.01,2013-04-05 00:51:00,
2013-04-04 19:56:00,38.6,25.1,30.14,NW,309,0.0,9.0,58,0.00,,---,0.00,VWS V13.01,2013-04-05 00:56:00,
2013-04-04 20:01:00,38.3,25.2,30.14,WNW,303,1.0,9.0,59,0.00,,---,0.00,VWS V13.01,2013-04-05 01:01:00,
2013-04-04 20:06:00,37.9,25.3,30.13,WNW,303,2.0,4.0,60,0.00,,---,0.00,VWS V13.01,2013-04-05 01:06:00,
2013-04-04 20:12:00,37.7,25.5,30.13,WNW,294,0.0,10.0,61,0.00,,---,0.00,VWS V13.01,2013-04-05 01:12:00,
2013-04-04 20:17:00,37.3,25.5,30.14,WNW,301,2.0,10.0,62,0.00,,---,0.00,VWS V13.01,2013-04-05 01:17:00,
2013-04-04 20:22:00,37.0,25.6,30.14,WNW,300,1.0,7.0,63,0.00,,---,0.00,VWS V13.01,2013-04-05 01:22:00,
2013-04-04 20:27:00,36.7,25.7,30.14,WNW,302,3.0,7.0,64,0.00,,---,0.00,VWS V13.01,2013-04-05 01:27:00,
2013-04-04 20:32:00,36.4,25.4,30.14,NW,316,5.0,7.0,64,0.00,,---,0.00,VWS V13.01,2013-04-05 01:32:00,
2013-04-04 20:37:00,36.2,25.2,30.15,NW,315,3.0,5.0,64,0.00,,---,0.00,VWS V13.01,2013-04-05 01:37:00,
2013-04-04 20:42:00,35.9,25.3,30.15,NW,315,0.0,5.0,65,0.00,,---,0.00,VWS V13.01,2013-04-05 01:42:00,
2013-04-04 20:47:00,35.6,25.0,30.15,NW,323,3.0,5.0,65,0.00,,---,0.00,VWS V13.01,2013-04-05 01:47:00,
2013-04-04 20:52:00,35.4,25.2,30.15,NW,309,0.0,6.0,66,0.00,,---,0.00,VWS V13.01,2013-04-05 01:52:00,
2013-04-04 20:57:00,35.2,25.0,30.15,WNW,300,3.0,7.0,66,0.00,,---,0.00,VWS V13.01,2013-04-05 01:57:00,
2013-04-04 21:02:00,35.1,24.9,30.15,NW,313,1.0,7.0,66,0.00,,---,0.00,VWS V13.01,2013-04-05 02:02:00,
2013-04-04 21:07:00,34.9,25.1,30.16,WNW,302,5.0,6.0,67,0.00,,---,0.00,VWS V13.01,2013-04-05 02:07:00,
2013-04-04 21:12:00,34.8,25.0,30.16,WNW,302,3.0,6.0,67,0.00,,---,0.00,VWS V13.01,2013-04-05 02:12:00,
2013-04-04 21:17:00,34.6,24.8,30.16,WNW,295,0.0,0.0,67,0.00,,---,0.00,VWS V13.01,2013-04-05 02:17:00,
2013-04-04 21:22:00,34.4,25.0,30.16,WNW,295,2.0,6.0,68,0.00,,---,0.00,VWS V13.01,2013-04-05 02:22:00,
2013-04-04 21:27:00,34.3,24.9,30.17,WNW,295,4.0,6.0,68,0.00,,---,0.00,VWS V13.01,2013-04-05 02:27:00,
2013-04-04 21:32:00,34.1,24.7,30.16,NW,306,5.0,7.0,68,0.00,,---,0.00,VWS V13.01,2013-04-05 02:32:00,
2013-04-04 21:37:00,34.0,24.6,30.17,WNW,300,0.0,7.0,68,0.00,,---,0.00,VWS V13.01,2013-04-05 02:37:00,
2013-04-04 21:42:00,33.9,24.8,30.17,WNW,302,2.0,7.0,69,0.00,,---,0.00,VWS V13.01,2013-04-05 02:42:00,
2013-04-04 21:47:00,33.8,24.4,30.17,NW,304,0.0,0.0,68,0.00,,---,0.00,VWS V13.01,2013-04-05 02:47:00,
2013-04-04 21:52:00,33.6,24.5,30.17,NW,311,2.0,5.0,69,0.00,,---,0.00,VWS V13.01,2013-04-05 02:52:00,
2013-04-04 21:57:00,33.5,24.4,30.17,NNW,327,1.0,5.0,69,0.00,,---,0.00,VWS V13.01,2013-04-05 02:57:00,
2013-04-04 22:02:00,33.2,24.5,30.17,NNW,327,0.0,0.0,70,0.00,,---,0.00,VWS V13.01,2013-04-05 03:02:00,
2013-04-04 22:07:00,33.0,24.3,30.17,NNW,327,1.0,4.0,70,0.00,,---,0.00,VWS V13.01,2013-04-05 03:07:00,
2013-04-04 22:12:00,32.7,24.0,30.17,NNW,327,0.0,4.0,70,0.00,,---,0.00,VWS V13.01,2013-04-05 03:12:00,
2013-04-04 22:17:00,32.5,24.2,30.17,NNW,327,0.0,0.0,71,0.00,,---,0.00,VWS V13.01,2013-04-05 03:17:00,
2013-04-04 22:22:00,32.3,24.0,30.18,NNW,327,1.0,4.0,71,0.00,,---,0.00,VWS V13.01,2013-04-05 03:22:00,
2013-04-04 22:28:00,32.1,24.1,30.18,NNW,327,0.0,4.0,72,0.00,,---,0.00,VWS V13.01,2013-04-05 03:28:00,
2013-04-04 22:33:00,31.9,23.9,30.18,NW,326,0.0,1.0,72,0.00,,---,0.00,VWS V13.01,2013-04-05 03:33:00,
2013-04-04 22:38:00,31.7,23.7,30.18,NNW,327,0.0,1.0,72,0.00,,---,0.00,VWS V13.01,2013-04-05 03:38:00,
2013-04-04 22:43:00,31.4,23.8,30.18,NNW,327,0.0,3.0,73,0.00,,---,0.00,VWS V13.01,2013-04-05 03:43:00,
2013-04-04 22:48:00,31.1,23.8,30.18,NW,326,0.0,0.0,74,0.00,,---,0.00,VWS V13.01,2013-04-05 03:48:00,
2013-04-04 22:53:00,30.8,23.5,30.18,NW,326,0.0,3.0,74,0.00,,---,0.00,VWS V13.01,2013-04-05 03:53:00,
2013-04-04 22:58:00,30.6,23.3,30.19,NNW,327,0.0,3.0,74,0.00,,---,0.00,VWS V13.01,2013-04-05 03:58:00,
2013-04-04 23:00:00,30.5,23.5,30.19,NW,326,0.0,3.0,75,0.00,,---,0.00,VWS V13.01,2013-04-05 04:00:00,
2013-04-04 23:05:00,30.2,23.2,30.18,NNW,327,0.0,0.0,75,0.00,,---,0.00,VWS V13.01,2013-04-05 04:05:00,
2013-04-04 23:10:00,30.1,23.5,30.19,NW,326,1.0,3.0,76,0.00,,---,0.00,VWS V13.01,2013-04-05 04:10:00,
2013-04-04 23:15:00,30.0,23.4,30.19,NNW,327,0.0,3.0,76,0.00,,---,0.00,VWS V13.01,2013-04-05 04:15:00,
2013-04-04 23:20:00,29.9,23.3,30.19,NNW,327,0.0,3.0,76,0.00,,---,0.00,VWS V13.01,2013-04-05 04:20:00,
2013-04-04 23:25:00,29.8,23.2,30.19,NNW,327,0.0,3.0,76,0.00,,---,0.00,VWS V13.01,2013-04-05 04:25:00,
2013-04-04 23:30:00,29.6,23.0,30.19,NNW,327,0.0,3.0,76,0.00,,---,0.00,VWS V13.01,2013-04-05 04:30:00,
2013-04-04 23:35:00,29.2,22.9,30.19,NNW,327,0.0,0.0,77,0.00,,---,0.00,VWS V13.01,2013-04-05 04:35:00,
2013-04-04 23:40:00,28.9,22.6,30.20,NNW,327,0.0,1.0,77,0.00,,---,0.00,VWS V13.01,2013-04-05 04:40:00,
2013-04-04 23:45:00,28.7,22.7,30.20,NW,326,1.0,2.0,78,0.00,,---,0.00,VWS V13.01,2013-04-05 04:45:00,
2013-04-04 23:50:00,28.4,22.7,30.20,NNW,327,0.0,1.0,79,0.00,,---,0.00,VWS V13.01,2013-04-05 04:50:00,
2013-04-04 23:55:00,28.3,22.9,30.20,NNW,327,0.0,1.0,80,0.00,,---,0.00,VWS V13.01,2013-04-05 04:55:00,